Location: Pompeys Pillar
(45.9913°N, 107.9528°W)
Time: 05:36:22
(UTC+00:00)

Tiros 1 - Pass Details

Date: 03 June 2022
Orbit: 629 x 663 km, 48.4° (Epoch: 30 June)

Event Time Altitude Azimuth Distance (km) Brightness Sun altitude
Rises 07:19:19 0° 271° (W) 2,913 10.5 -21.7°
Reaches altitude 10° 07:21:39 10° 274° (W) 2,007 9.7 -21.6°
Maximum altitude 07:26:14 65° 356° (N) 698 7.5 -21.6°
Drops below altitude 10° 07:30:51 10° 79° (E) 2,019 9.9 -21.5°
Sets 07:33:13 0° 82° (E) 2,932 10.7 -21.5°
